SKYSAT-C10 (42988 NORAD) Tracking and Keplerian Element Data

This shows tracking and keplerian element data for the satellite.

Feedback or suggestion? Click here.




ElementValue
Catalog42988
NameSKYSAT-C10
Epoch Orbit21773
Epoch Day269.12883587
Epoch Year2021
RAAN24.4837
Inclination97.2735
Eccentricity0.0002061
Argument of Perigee190.6191
Mean Anonmoly169.5012
Mean Motion15.40492311
Decay Rate5.237E-05
L11 42988U 17068B 21269.12883587 .00005237 00000-0 13124-3 0 9996
L22 42988 97.2735 24.4837 0002061 190.6191 169.5012 15.40492311217734

Live tracking and technical data element details for SKYSAT-C10 (NORAD 42988). SKYSAT-C10 can be tracked NOW for your location showing map with azimuth and elevation plus other details from your city location.

Track the satellite on the map from your city or location and see movement details for azimuth, elevation, latitude, longitude, range, height, and movement on the map or in text.







IsCatalogInMostPopularTable: catalog: 42988, numindb: 612
Update: records affected: 1



GetName: 42988 SKYSAT-C10

Hit Count: updated at: Mon, 27 Sep 2021 00:58:14 GMT